User: anonymous   Login
Location: Unspecified
(0.0000°N, 0.0000°E)
Time: 09:14:28
(UTC+00:00)
Language:

CAS-4B - Orbit

View from above orbital plane
View from above orbital plane
View from above satellite
View from above satellite

Ground track
Ground track

The orbit data is extracted from the following two-line orbital elements,

1 42759U 17034B   20270.10742183  .00000174  00000-0  24032-4 0  9996
2 42759  43.0180 194.0055 0011812 303.7726 143.8073 15.09888048181186
Epoch (UTC): 26 September 2020 02:34:41
Eccentricity: 0.0011812
inclination: 43.0180°
perigee height: 528 km
apogee height: 545 km
right ascension of ascending node: 194.0055°
argument of perigee: 303.7726°
revolutions per day: 15.09888048
mean anomaly at epoch: 143.8073°
orbit number at epoch: 18118

The dashed part of the orbit path shows where the satellite is in the earth's shadow,  

DLR